User: anonymous   Login
Location: Unspecified
(0.0000°N, 0.0000°E)
Time: 03:37:17
(UTC+00:00)
Language:

Mayak - Orbit

View from above orbital plane
View from above orbital plane
View from above satellite
View from above satellite

Ground track
Ground track

The orbit data is extracted from the following two-line orbital elements,

1 42830U 17042F   18172.73139210  .00000640  00000-0  69576-4 0  9993
2 42830  97.5980  75.0914 0014163 175.1625 184.9733 14.91309425 51015
Epoch (UTC): 21 June 2018 17:33:12
Eccentricity: 0.0014163
inclination: 97.5980°
perigee height: 584 km
apogee height: 604 km
right ascension of ascending node: 75.0914°
argument of perigee: 175.1625°
revolutions per day: 14.91309425
mean anomaly at epoch: 184.9733°
orbit number at epoch: 5101

The dashed part of the orbit path shows where the satellite is in the earth's shadow,  

DLR